Location: Fensholt
(55.9856°N, 10.0808°E)
Time: 20:45:51
(UTC+00:00)

Cosmos 1400 Rocket - Pass Details

Date: 03 October 2020
Orbit: 521 x 568 km, 81.2° (Epoch: 29 October)

Event Time Altitude Azimuth Distance (km) Brightness Sun altitude
Exits shadow 21:31:23 11° 11° (N) 1,842 6.0 -34.9°
Drops below altitude 10° 21:31:29 10° 11° (NNE) 1,883 6.0 -34.9°
Sets 21:33:42 0° 14° (NNE) 2,786 7.0 -35.1°
